Location: Newark
(25.6108°S, 54.5803°W)
Time: 07:36:47
(UTC+00:00)

Courier 1B - Pass Details

Date: 29 October 2020
Orbit: 962 x 1209 km, 28.3° (Epoch: 02 December)

Event Time Altitude Azimuth Distance (km) Brightness Sun altitude
Rises 02:03:34 0° 286° (WNW) 3,969 - -46.4°
Reaches altitude 10° 02:06:18 10° 286° (WNW) 3,043 - -46.7°
Maximum altitude 02:13:55 87° 13° (NNE) 1,195 - -47.5°
Drops below altitude 10° 02:21:52 10° 103° (ESE) 3,154 - -48.2°
Sets 02:24:44 0° 103° (ESE) 4,121 - -48.4°
